Theta_e
313 312 309 309 312 312 308 306 306 307 307 307 307 307 307 307 307 308 309 311 312 317 320 322 320 318 331 343 345 348 349 354 354 353 351 346 347 346 345 343 343 344 343 343 340
312 312 312 311 312 312 311 307 306 307 307 307 307 306 307 307 307 309 310 311 312 320 320 322 321 319 322 326 339 348 346 351 348 348 348 350 347 344 344 344 343 342 342 341 334
313 313 312 312 312 313 313 309 306 307 308 308 307 306 307 307 308 313 314 311 315 321 320 321 321 321 325 328 332 347 346 348 348 348 347 350 348 343 345 346 341 344 342 339 340
311 312 313 312 313 313 313 311 307 307 307 306 307 306 306 307 312 327 321 311 315 320 322 323 319 324 328 330 332 346 344 345 345 350 347 349 346 345 345 345 342 341 341 342 344
309 313 313 314 313 313 313 311 307 307 307 306 306 306 307 308 313 325 322 314 312 317 318 322 320 328 329 332 336 342 342 347 351 350 348 348 348 347 343 344 343 343 344 345 346
310 312 313 314 313 313 312 307 308 309 309 306 305 306 307 308 315 323 323 314 312 315 316 320 323 331 332 332 333 336 347 352 350 347 350 349 348 344 345 346 345 344 344 345 346
313 308 312 313 313 312 308 310 311 311 308 305 305 307 309 309 326 325 323 315 312 316 316 320 328 332 332 330 339 348 350 352 351 350 349 347 352 347 347 346 347 345 345 346 347
314 311 308 311 308 309 313 310 310 311 306 305 307 309 309 310 326 325 320 315 314 315 315 323 330 332 332 329 339 347 344 352 351 349 349 347 354 348 347 347 347 347 346 346 347
314 313 308 308 310 313 314 315 311 310 309 309 308 309 311 313 324 322 321 318 316 315 318 319 322 329 324 319 323 327 345 349 351 348 348 347 349 346 347 347 347 347 347 347 347
315 314 309 311 312 314 315 315 320 316 309 309 310 319 319 322 321 320 319 318 316 315 313 317 323 317 314 318 322 328 340 344 346 348 349 349 348 346 347 346 347 346 347 346 346
315 314 310 311 312 313 315 315 319 320 319 318 315 317 321 322 320 319 321 316 314 316 320 321 318 320 319 319 319 321 322 327 352 348 350 349 349 347 347 345 344 345 345 345 346
313 315 314 312 312 314 315 316 319 318 317 319 319 318 318 319 322 322 323 319 320 320 320 317 318 317 318 319 320 321 322 345 350 348 348 350 351 347 347 345 344 345 344 344 345
312 315 316 315 315 316 318 319 318 318 316 317 317 318 319 321 323 323 325 322 319 320 320 320 322 318 320 320 320 320 319 343 350 349 348 351 352 350 347 346 344 345 345 345 346
311 314 316 316 316 317 317 319 318 319 311 316 317 320 321 322 323 324 324 324 319 319 318 321 321 321 321 322 319 320 318 329 349 344 348 344 351 349 349 348 346 345 345 344 345
311 312 315 316 316 317 318 318 320 317 318 320 319 320 321 323 323 323 324 323 319 319 318 320 319 321 321 321 318 320 328 328 347 341 341 343 342 341 347 350 347 345 344 344 345
312 312 312 315 317 318 318 319 319 313 322 322 319 318 320 320 319 322 322 323 322 320 319 319 320 319 319 319 319 338 338 336 334 337 341 340 340 343 350 348 347 345 343 342 345
312 313 313 313 317 317 318 321 315 318 319 321 320 317 319 319 319 321 321 319 319 319 320 321 321 321 320 320 325 334 335 339 342 343 343 336 345 341 342 343 345 344 343 342 344
313 313 313 313 316 317 320 318 322 323 322 320 318 314 317 316 317 318 319 318 318 317 317 320 322 321 319 320 321 333 331 335 340 341 339 342 346 344 342 342 344 344 341 342 345
312 311 311 313 317 319 321 318 319 321 321 321 317 318 318 319 320 320 318 317 319 316 319 319 322 321 320 319 324 332 334 326 329 327 340 342 347 345 342 344 344 344 342 343 343
310 309 311 314 318 321 317 319 320 319 321 319 320 318 320 319 321 320 321 321 318 317 316 319 322 321 321 323 323 325 324 327 323 332 334 345 347 345 347 346 345 345 345 344 342
311 317 316 313 318 322 317 316 319 320 322 318 319 319 318 320 320 321 321 321 319 319 316 316 318 321 321 322 323 323 323 319 320 323 332 340 342 343 343 342 341 341 343 345 344
314 315 318 316 317 310 314 316 318 315 321 318 318 318 319 319 320 320 321 320 321 318 317 316 315 321 323 320 317 319 322 319 323 327 331 333 338 338 341 339 339 339 341 340 342
317 317 319 318 317 313 312 317 313 313 313 318 319 318 317 318 319 319 320 321 321 317 314 315 315 320 321 320 317 317 318 316 315 325 335 332 335 337 338 338 339 340 340 341 340
320 313 316 317 314 312 317 315 313 315 314 314 315 316 317 317 316 319 319 318 318 317 320 316 314 319 321 320 316 319 317 318 317 325 332 332 341 340 337 335 336 340 338 338 337
320 316 316 315 313 310 312 313 314 314 314 314 314 314 317 318 318 320 319 317 316 316 315 312 318 319 319 318 318 318 317 318 318 321 328 332 338 339 335 333 337 338 336 338 338
320 318 320 317 316 311 308 312 313 312 315 315 313 313 313 317 318 319 317 316 317 316 315 310 317 318 321 322 320 318 317 320 335 336 336 336 338 333 332 334 336 337 336 335 335
319 322 320 316 309 310 310 313 314 314 315 315 315 313 313 313 313 314 317 315 312 315 315 314 316 316 320 318 320 322 317 318 324 335 336 337 333 332 331 334 336 336 335 334 333
Wind_Speed
14 13 12 10 9 7 8 8 9 9 7 8 9 9 9 9 10 12 15 8 14 18 21 18 15 13 12 8 4 4 3 1 3 2 3 7 6 9 6 17 5 2 24 30 32
14 13 12 11 11 8 7 8 8 8 8 7 8 9 9 8 11 16 7 12 17 18 23 22 19 16 7 5 5 3 3 8 7 12 8 8 14 10 10 7 13 27 25 31 30
14 13 12 10 10 10 8 7 8 9 8 8 8 8 8 7 7 1 7 17 19 17 21 20 17 15 4 6 5 5 4 6 9 16 19 10 12 13 15 2 23 34 35 32 30
18 15 12 11 10 9 8 8 7 8 10 8 6 6 7 4 4 5 3 18 24 21 22 17 20 10 4 4 7 3 8 6 8 15 20 7 16 13 4 2 29 37 37 34 29
18 16 13 11 10 9 7 8 8 9 8 9 6 3 5 5 2 3 2 17 27 23 20 20 21 8 5 4 7 4 3 10 5 20 17 15 13 10 8 15 25 34 33 32 28
18 15 13 11 10 8 7 6 7 8 7 5 6 6 4 2 3 5 4 17 25 24 21 20 15 9 2 3 5 1 5 9 9 16 11 14 10 20 17 20 27 32 32 30 28
18 17 13 10 8 7 6 6 5 5 5 3 4 5 6 6 3 8 6 12 21 20 21 18 12 7 1 2 1 8 5 6 6 8 6 26 8 14 13 21 24 29 31 29 28
17 17 13 10 7 6 5 5 5 3 1 1 2 5 5 8 7 8 10 16 16 18 13 17 19 1 2 4 3 4 3 5 2 5 13 2 5 16 17 27 26 25 27 29 30
16 16 12 8 5 4 5 7 6 3 1 1 2 3 4 10 12 8 8 11 15 14 10 12 10 2 1 4 4 6 2 2 2 4 6 3 4 8 20 30 24 26 23 25 29
14 15 12 8 5 4 4 7 6 4 1 0 4 2 2 5 13 9 10 4 12 14 10 8 5 3 3 4 4 4 2 1 3 4 2 2 3 7 23 24 22 28 23 23 27
13 12 9 5 4 5 7 5 6 2 9 8 5 6 2 5 11 10 10 11 15 15 5 5 5 6 6 5 5 3 2 1 2 6 4 3 4 9 18 21 16 19 25 21 31
13 11 9 7 5 7 6 3 7 9 8 11 13 16 14 7 7 13 15 8 6 5 6 5 4 7 7 4 4 2 1 1 2 2 4 5 5 1 12 22 27 14 13 25 26
13 11 10 7 9 4 6 3 11 17 2 6 4 6 2 11 7 12 19 7 4 3 4 6 2 10 6 4 4 2 5 4 3 6 6 4 3 4 3 12 24 20 13 8 23
12 10 8 9 6 6 3 11 18 7 4 4 3 2 8 6 3 12 16 7 2 5 6 3 2 4 4 4 5 3 6 6 10 4 3 2 4 4 8 6 17 29 25 11 8
12 11 8 7 9 7 4 13 14 2 4 2 2 2 9 7 12 6 16 7 5 4 5 5 2 2 2 6 8 5 3 8 6 5 4 2 2 2 9 10 12 26 28 18 6
12 12 9 9 9 5 4 14 2 5 3 4 2 4 4 2 2 8 6 7 5 4 3 5 2 5 7 5 9 8 9 8 5 4 1 4 3 3 6 12 13 22 31 29 13
11 13 11 9 4 8 9 8 5 3 3 5 3 3 3 1 2 3 5 4 5 5 2 4 4 3 5 4 2 5 5 3 3 1 5 2 4 5 5 5 18 25 31 35 22
11 11 11 6 8 5 6 4 3 2 3 4 3 4 5 6 4 4 4 3 2 5 2 5 4 6 4 8 9 8 8 5 5 5 3 3 4 3 2 3 15 28 37 31 27
12 11 9 3 4 2 1 4 5 4 3 4 3 6 6 4 3 3 3 5 3 5 5 3 5 4 5 4 7 6 4 5 7 3 4 3 1 2 5 4 13 22 30 29 32
15 6 2 5 5 2 4 3 3 3 2 1 4 2 3 5 3 4 2 1 3 2 3 4 1 2 5 1 3 6 5 3 2 6 4 3 3 4 7 8 8 12 22 29 37
6 2 3 10 6 1 2 4 4 4 2 4 2 4 3 2 3 1 1 0 1 3 2 5 3 6 1 4 1 3 0 5 5 3 6 4 5 1 6 8 10 12 18 28 31
2 3 4 12 4 2 0 3 3 4 0 3 4 3 2 3 3 1 4 3 2 2 1 1 5 1 4 3 3 2 2 4 5 4 2 3 3 3 6 9 14 13 17 18 22
3 5 3 8 3 2 4 2 6 6 4 2 3 3 2 3 3 1 2 1 3 2 5 4 2 3 8 6 5 5 4 3 2 3 5 6 4 1 11 14 13 15 15 13 14
2 3 3 5 1 3 3 0 4 7 5 5 4 4 3 5 2 1 2 2 1 3 7 5 2 5 5 4 3 5 6 2 4 3 5 4 8 7 10 9 12 15 15 14 10
4 2 1 1 3 3 3 0 4 3 5 13 6 6 1 3 5 3 3 3 4 3 4 4 3 2 3 3 2 1 6 8 5 3 5 7 10 17 14 12 18 15 13 11 9
3 3 1 3 1 2 3 4 4 2 3 3 6 3 6 4 1 3 3 4 2 5 3 3 0 0 1 1 5 3 6 7 5 3 3 8 1 7 15 18 18 18 17 13 10
6 5 1 7 3 4 1 2 2 2 7 4 1 3 4 2 4 5 3 2 2 2 2 3 4 3 3 4 3 4 5 5 4 1 5 5 5 16 11 16 18 17 18 18 17
Wind_Direction
333 329 323 318 318 317 307 300 294 294 291 287 277 271 267 263 259 254 243 206 192 175 177 172 160 150 161 168 133 109 104 134 100 69 280 136 114 146 153 134 84 194 152 155 157
338 330 324 317 315 313 307 297 293 295 298 290 283 273 271 268 269 263 233 194 187 184 184 180 166 158 155 181 184 152 126 191 190 169 188 149 129 130 129 124 104 110 142 154 154
338 328 319 313 311 310 309 303 298 294 291 294 287 277 274 279 294 234 207 179 173 171 173 171 171 156 145 167 187 180 195 158 197 168 179 148 124 135 150 117 154 142 152 158 158
342 331 319 311 308 307 308 308 299 294 296 282 274 277 276 266 150 140 135 176 171 167 170 155 161 153 140 180 196 168 232 155 168 172 177 164 130 130 194 115 161 152 153 158 164
351 342 331 316 308 304 305 307 303 297 290 282 251 224 276 256 214 166 199 187 178 178 178 165 162 149 177 195 172 228 224 183 178 184 183 150 134 112 119 153 167 159 161 163 166
356 349 339 326 316 314 314 311 306 303 293 275 252 168 224 283 194 153 128 185 183 184 179 174 177 160 193 225 176 238 162 109 122 149 151 150 107 142 197 165 171 168 169 170 171
357 353 348 343 333 328 331 326 319 306 291 247 229 231 205 225 177 143 142 172 187 186 180 174 169 194 213 315 53 115 92 98 105 121 101 108 131 200 191 172 168 176 176 178 183
356 356 353 351 350 353 358 353 344 343 301 226 190 253 245 182 182 153 157 178 180 183 200 170 171 229 280 341 62 77 63 140 185 131 163 195 184 209 200 181 176 176 181 186 192
357 357 357 4 12 32 38 25 32 31 42 176 213 262 267 166 187 176 165 183 179 181 140 156 191 245 345 89 43 21 173 86 153 228 155 222 145 167 166 170 176 171 189 189 197
358 359 2 7 12 12 1 4 356 355 74 71 254 322 95 151 198 221 199 166 161 157 163 148 148 82 36 76 186 178 109 98 148 190 124 66 102 140 164 175 178 178 202 190 201
358 2 6 3 355 348 7 351 6 328 293 248 284 283 297 29 153 182 177 165 146 151 144 184 101 181 180 191 139 120 89 273 28 164 101 129 106 165 168 166 165 183 208 204 207
352 355 359 354 336 329 345 41 72 341 306 297 263 261 258 251 155 153 161 165 161 140 125 61 181 210 160 155 132 137 101 96 100 72 95 159 93 231 170 185 184 178 171 212 208
344 349 349 339 322 324 356 74 355 344 253 292 274 248 216 168 152 152 170 170 126 106 140 143 255 152 131 141 137 191 168 172 146 104 58 117 83 170 220 198 190 188 174 222 204
336 340 336 327 321 336 50 359 344 329 55 292 281 190 156 154 76 165 172 160 83 153 142 161 197 139 123 158 142 207 195 155 144 114 166 30 204 239 160 179 185 187 205 212 200
326 325 321 310 292 312 336 347 341 102 62 318 212 152 172 159 140 168 175 161 136 133 98 243 154 140 132 205 167 213 152 160 159 97 113 231 123 244 154 185 194 190 190 182 267
320 313 308 300 286 296 336 341 353 39 31 356 123 128 110 49 89 138 142 160 122 108 44 223 239 161 205 197 174 160 82 54 60 89 360 209 162 220 188 219 185 184 182 184 231
313 304 302 296 263 312 324 339 37 101 319 353 10 19 110 44 105 113 138 110 141 112 253 304 260 246 164 121 89 78 83 48 52 65 212 297 138 261 287 213 190 180 182 195 211
312 298 287 270 267 300 336 55 79 280 291 329 36 60 87 357 45 23 81 86 90 89 111 164 304 186 177 178 179 188 158 151 160 179 215 87 216 268 338 323 199 177 185 188 195
320 300 285 203 200 198 54 67 196 210 280 320 94 67 10 349 106 75 53 152 149 167 161 145 280 300 200 190 145 185 191 185 102 38 95 202 274 227 99 79 158 178 172 184 206
329 301 235 147 155 147 75 226 230 214 278 356 89 63 118 344 61 49 22 248 161 219 167 191 323 274 296 65 51 161 165 91 22 133 196 227 236 232 168 150 141 154 172 184 196
350 84 109 147 155 67 125 229 259 287 249 41 86 65 59 99 78 97 215 53 267 8 270 129 99 289 7 36 356 346 344 52 112 114 154 167 250 286 171 160 153 169 171 189 203
53 67 136 152 62 12 152 212 360 32 82 59 91 97 72 38 74 132 177 187 197 160 29 338 129 320 251 309 247 321 103 124 137 210 107 151 245 312 170 152 165 165 172 174 185
61 97 103 173 132 280 288 322 61 32 22 48 73 55 72 87 42 360 214 271 221 133 161 190 13 37 346 357 8 43 321 125 125 90 189 136 244 51 141 151 171 159 163 172 184
49 70 100 187 137 155 151 41 97 27 63 55 49 85 87 49 52 243 343 48 273 65 72 71 95 147 184 202 196 329 333 342 117 114 167 204 156 195 173 157 159 161 159 160 160
34 63 81 339 4 42 71 346 88 24 43 31 27 29 100 65 359 345 342 345 53 76 59 88 120 140 165 218 234 161 325 328 200 182 158 195 180 195 183 161 160 154 162 155 159
57 92 79 25 1 139 336 11 115 141 51 1 100 42 56 93 190 312 17 17 296 17 71 29 104 98 216 306 271 110 3 26 55 83 41 129 148 136 143 153 151 152 144 141 148
23 33 47 4 10 77 308 110 105 77 41 61 55 102 51 349 289 279 242 109 39 13 100 72 115 44 259 326 323 6 2 355 280 215 143 169 223 151 146 158 148 142 144 141 140